Weather History for Wolf Point, MT

Change the Weather History Date:

Friday, May 16, 2014

  Actual Average Record
Temperature  
Mean Temperature 53 °F -  
Max Temperature 59 °F 70 °F 91 °F (2012)
Min Temperature 46 °F 39 °F 28 °F (2002)
Degree Days  
Heating Degree Days 12    
Cooling Degree Days 0    
Growing Degree Days 2 (Base 50)    
Moisture  
Dew Point 45 °F    
Average Humidity 79    
Maximum Humidity 90    
Minimum Humidity 55    
Precipitation  
Precipitation 0.01 in 0.05 in 0.08 in (2003)
Month to date precipitation 0.91 0.67  
Year to date precipitation 2.31 2.59  
Sea Level Pressure  
Sea Level Pressure 30.09 in    
Wind  
Wind Speed 7 mph (NNW)    
Max Wind Speed 14 mph    
Max Gust Speed -    
Visibility 9 miles    
Events Rain    
T = Trace of Precipitation, MM = Missing Value Source: NWS Daily Summary

Daily Weather History Graph

Daily Weather History Graph

Search for Another Location

Airport:

Trip Planner

Search our weather history database for the weather conditions in past years. The results will help you decide how hot, cold, wet, or windy it might be!

Date:

Astronomy

May. 16, 2014 Rise Set
Actual Time 5:21 AM MDT 8:36 PM MDT
Civil Twilight 4:44 AM MDT 9:13 PM MDT
Nautical Twilight 3:55 AM MDT 10:02 PM MDT
Astronomical Twilight 2:54 AM MDT 11:05 PM MDT
Moon 10:45 PM MDT (5/16) 7:06 AM MDT (5/16)
Length of Visible Light 16h 29m
Length of Day
15h 14m
Waning Gibbous, 95% of the Moon is Illuminated
May 16
Waning Gibbous
May 21
Last Quarter
May 28
New
Jun 5
First Quarter
Jun 12
Full

Hourly Weather History & Observations

Time (MDT) Temp. Windchill Dew Point Humidity Pressure Visibility Wind Dir Wind Speed Gust Speed Precip Events Conditions
12:53 AM 48.9 °F - 46.0 °F 90% 30.03 in 10.0 mi ENE 10.4 mph - N/A   Overcast
1:35 AM 48.9 °F - 46.0 °F 90% 30.02 in 10.0 mi ENE 10.4 mph - N/A   Overcast
1:44 AM 48.9 °F - 45.0 °F 86% 30.03 in 10.0 mi ENE 8.1 mph - N/A   Overcast
1:53 AM 48.2 °F - 44.6 °F 87% 30.03 in 10.0 mi ENE 8.1 mph - N/A   Overcast
2:06 AM 48.0 °F - 45.0 °F 89% 30.03 in 10.0 mi ENE 4.6 mph - N/A   Overcast
2:53 AM 46.9 °F - 44.1 °F 90% 30.05 in 10.0 mi NNE 5.8 mph - N/A   Overcast
3:53 AM 48.0 °F - 45.0 °F 89% 30.06 in 10.0 mi NNE 4.6 mph - N/A   Overcast
4:43 AM 48.0 °F - 45.0 °F 89% 30.06 in 10.0 mi Calm Calm - 0.00 in Rain Light Rain
4:53 AM 48.0 °F - 45.0 °F 89% 30.07 in 10.0 mi ENE 5.8 mph - 0.00 in   Overcast
5:07 AM 48.0 °F - 45.0 °F 89% 30.07 in 10.0 mi ENE 4.6 mph - N/A   Overcast
5:41 AM 48.0 °F - 45.0 °F 89% 30.07 in 9.0 mi Calm Calm - N/A   Overcast
5:53 AM 48.0 °F - 45.0 °F 89% 30.09 in 9.0 mi Calm Calm - N/A   Overcast
6:27 AM 48.0 °F - 45.0 °F 89% 30.08 in 7.0 mi East 3.5 mph - N/A   Overcast
6:53 AM 48.0 °F - 45.0 °F 89% 30.10 in 8.0 mi East 3.5 mph - N/A   Overcast
7:53 AM 48.9 °F - 45.0 °F 86% 30.11 in 10.0 mi Calm Calm - N/A   Overcast
8:53 AM 50.0 °F - 45.0 °F 83% 30.13 in 10.0 mi Calm Calm - N/A   Overcast
9:06 AM 50.0 °F - 45.0 °F 83% 30.11 in 7.0 mi Calm Calm - 0.00 in Rain Light Rain
9:15 AM 48.9 °F - 45.0 °F 86% 30.11 in 4.0 mi West 6.9 mph - 0.01 in Rain Light Rain
9:26 AM 48.9 °F - 46.0 °F 90% 30.11 in 4.0 mi West 5.8 mph - 0.01 in Rain Light Rain
9:53 AM 51.1 °F - 46.9 °F 86% 30.13 in 10.0 mi NNW 3.5 mph - 0.01 in   Overcast
10:15 AM 51.1 °F - 46.0 °F 83% 30.11 in 10.0 mi WNW 5.8 mph - N/A   Overcast
10:34 AM 52.0 °F - 46.0 °F 80% 30.11 in 10.0 mi Calm Calm - N/A   Overcast
10:41 AM 54.0 °F - 46.0 °F 75% 30.11 in 10.0 mi WNW 8.1 mph - N/A   Overcast
10:53 AM 53.1 °F - 46.0 °F 77% 30.13 in 10.0 mi NW 8.1 mph - N/A   Overcast
11:07 AM 54.0 °F - 46.0 °F 75% 30.11 in 10.0 mi NW 8.1 mph - N/A   Overcast
11:53 AM 55.0 °F - 45.0 °F 69% 30.13 in 10.0 mi WNW 6.9 mph - N/A   Overcast
12:53 PM 54.0 °F - 45.0 °F 72% 30.12 in 10.0 mi NNW 11.5 mph - N/A   Overcast
1:31 PM 57.0 °F - 45.0 °F 64% 30.10 in 10.0 mi WNW 10.4 mph - N/A   Overcast
1:53 PM 57.2 °F - 44.6 °F 63% 30.10 in 10.0 mi NW 13.8 mph - N/A   Overcast
2:53 PM 55.9 °F - 44.1 °F 64% 30.11 in 10.0 mi WNW 12.7 mph - N/A   Overcast
3:53 PM 55.9 °F - 45.0 °F 67% 30.11 in 10.0 mi WNW 12.7 mph - N/A   Overcast
4:53 PM 57.0 °F - 44.1 °F 62% 30.10 in 10.0 mi NW 12.7 mph - N/A   Overcast
5:53 PM 57.9 °F - 44.1 °F 60% 30.09 in 10.0 mi NW 10.4 mph - N/A   Overcast
6:53 PM 57.9 °F - 42.1 °F 56% 30.08 in 10.0 mi NW 10.4 mph - N/A   Overcast
7:53 PM 57.0 °F - 41.0 °F 55% 30.08 in 10.0 mi NW 9.2 mph - N/A   Overcast
8:53 PM 48.2 °F - 41.0 °F 76% 30.05 in 10.0 mi NW 5.8 mph - N/A   Clear
9:53 PM 46.9 °F - 39.9 °F 77% 30.09 in 10.0 mi West 3.5 mph - N/A   Overcast
10:53 PM 48.0 °F - 42.1 °F 80% 30.08 in 10.0 mi Calm Calm - N/A   Overcast
11:53 PM 46.0 °F 43.9 °F 41.0 °F 83% 30.08 in 10.0 mi SSW 4.6 mph - N/A   Overcast